Temp
1 1 1 1 0 1 3 3 4 5 5 6 7 7 8 9 10 9 12 13 15 12 9 11 12 12 12 14 14 11 12 11 11 10 9 11 11 13 14 14 12 12 11 9 8 9 11 12 12 13 14 12 11 11
0 0 1 1 2 3 4 4 5 6 7 7 8 8 9 10 9 11 12 13 14 14 8 10 11 12 14 13 13 11 14 13 14 12 10 9 8 6 12 14 11 13 14 14 13 15 13 12 13 11 10 11 11 10
1 3 3 3 3 4 4 5 6 7 8 8 9 9 10 10 10 11 12 13 13 9 8 9 8 10 12 14 14 13 11 12 11 12 10 9 8 11 8 12 13 12 10 12 11 15 13 12 12 11 10 10 9 8
4 4 4 4 5 6 7 7 8 8 8 9 10 10 10 10 10 11 13 13 13 10 7 8 8 9 11 12 13 14 15 14 13 10 7 6 9 9 11 12 12 13 11 12 12 14 13 11 10 9 8 8 7 7
5 5 6 6 6 6 7 7 8 8 9 10 10 10 10 10 10 12 13 12 12 12 6 7 7 8 10 11 13 13 13 13 11 9 5 9 7 8 7 8 11 11 13 11 12 10 11 9 6 8 7 6 5 5
6 6 6 6 6 7 7 8 8 9 10 10 10 10 10 10 11 12 12 11 11 11 9 7 7 7 8 9 11 11 12 12 11 8 4 6 5 8 6 11 9 8 7 7 10 7 7 5 5 5 5 4 4 3
5 6 6 6 6 7 8 9 10 11 10 11 10 10 10 10 11 12 13 13 11 10 9 6 7 7 8 9 9 9 10 10 8 4 4 5 5 7 4 10 7 6 6 5 5 5 6 4 3 3 3 1 1 -0
6 6 6 7 7 7 8 8 9 10 10 9 9 8 8 9 10 11 12 13 11 11 11 4 6 6 7 5 5 7 7 6 4 3 3 4 4 4 6 6 5 5 4 4 3 4 3 2 1 0 -0 0 0 -0
6 6 6 7 7 7 7 7 8 8 8 8 9 9 10 11 10 9 11 12 11 12 8 4 6 6 4 3 3 4 4 4 4 4 4 5 3 5 3 3 4 4 3 3 3 2 1 0 -0 -1 0 0 -0 0
6 6 7 6 7 7 8 7 8 8 9 10 11 12 10 9 10 11 11 12 12 10 8 1 2 4 4 3 3 4 2 4 4 4 3 5 6 1 1 2 1 2 2 2 0 -0 -0 -0 -0 0 1 0 0 -0
5 6 6 7 7 6 6 7 7 7 9 9 10 8 8 9 10 10 6 5 5 3 2 2 3 4 2 5 3 1 3 3 5 5 5 5 5 1 0 1 2 2 1 1 1 -0 0 0 0 0 -1 -0 -0 -0
5 5 6 6 7 6 7 7 7 8 9 9 8 8 8 8 8 4 3 3 4 4 2 3 2 2 1 2 3 2 2 3 5 3 5 5 2 -0 0 0 0 0 0 0 0 0 -0 -0 -0 -0 -0 -1 -1 -1
4 4 5 5 5 5 6 6 7 7 8 8 8 8 7 4 5 7 5 4 3 2 2 2 2 2 1 2 1 4 5 4 3 4 5 3 1 -0 -0 -0 -0 -0 -0 -1 -1 -0 -0 -1 -1 -1 -1 -2 -2 -2
4 5 4 5 5 5 5 5 6 7 7 6 5 3 4 5 2 3 3 3 0 1 2 2 1 2 1 3 2 5 2 3 4 4 4 0 -0 -1 -1 -1 -1 -1 -0 -0 -0 -1 -1 -1 -2 -2 -2 -2 -2 -2
3 4 4 4 4 4 5 5 5 6 5 3 3 3 2 -1 -1 -1 -0 0 0 1 2 2 2 2 2 2 2 2 3 4 4 4 2 -1 -1 -1 -1 -1 -1 -0 -0 -1 -1 -1 -1 -2 -2 -2 -3 -3 -3 -3
2 3 3 3 4 4 4 4 5 5 2 -0 -1 -0 -1 -0 -1 -1 -0 -0 1 1 2 2 1 3 2 3 3 4 4 5 3 1 -1 -1 -1 -1 -1 -1 -1 -1 -1 -2 -2 -2 -2 -3 -3 -3 -3 -3 -3 -4
2 1 1 2 2 3 4 4 3 1 -1 -1 -1 -1 -1 -1 -1 -1 -1 -0 0 1 1 1 3 2 1 2 2 2 2 1 -1 -1 -1 -1 -2 -2 -2 -1 -2 -2 -2 -2 -3 -3 -3 -3 -4 -4 -4 -4 -5 -5
2 1 2 2 2 2 3 1 -1 -1 -2 -2 -1 -2 -2 -2 -1 -1 -1 -0 0 -0 -0 1 0 1 2 2 2 1 -1 -2 -2 -2 -1 -2 -3 -3 -3 -3 -3 -3 -3 -3 -3 -4 -4 -4 -5 -5 -6 -6 -6 -7
2 3 3 3 3 3 0 -1 -1 -2 -2 -2 -2 -2 -2 -3 -2 -1 -1 -0 0 0 0 0 1 2 2 1 0 -1 -2 -2 -2 -3 -3 -3 -3 -3 -3 -4 -4 -4 -4 -4 -4 -5 -6 -6 -6 -7 -7 -7 -8 -9
2 3 3 4 4 2 -1 -1 -1 -2 -2 -3 -2 -3 -3 -3 -2 -2 -1 -0 0 -0 -0 0 0 -2 -1 -3 -2 -1 -1 -2 -2 -4 -5 -4 -4 -4 -4 -5 -5 -5 -5 -5 -6 -6 -7 -7 -8 -8 -9 -9 -10 -10
2 3 3 4 2 -0 -2 -2 -3 -3 -3 -3 -3 -3 -3 -2 -2 -2 -2 -1 -2 -3 -2 -5 -5 -5 -4 -3 -2 -2 -2 -2 -2 -2 -4 -6 -6 -5 -5 -5 -5 -6 -6 -7 -7 -7 -8 -8 -9 -10 -10 -11 -11 -12
2 3 2 2 -0 -2 -2 -2 -2 -2 -3 -3 -3 -3 -2 -2 -2 -3 -3 -3 -4 -5 -5 -5 -6 -6 -5 -3 -3 -2 -2 -2 -2 -3 -3 -4 -6 -6 -6 -6 -7 -7 -7 -8 -8 -9 -9 -10 -10 -11 -11 -12 -12 -13
2 1 0 -0 -1 -2 -3 -2 -2 -2 -1 -2 -3 -2 -2 -3 -4 -4 -3 -4 -5 -6 -5 -5 -5 -5 -4 -4 -4 -4 -4 -4 -4 -5 -5 -6 -6 -7 -7 -7 -8 -8 -9 -9 -10 -10 -11 -11 -12 -12 -12 -13 -13 -14
0 -1 -2 -3 -4 -4 -3 -4 -3 -3 -2 -1 -1 -2 -3 -4 -4 -3 -3 -5 -6 -6 -6 -6 -6 -6 -6 -6 -6 -6 -6 -5 -5 -6 -7 -7 -7 -8 -8 -9 -9 -9 -10 -11 -11 -12 -12 -12 -12 -13 -13 -14 -14 -15
-1 -5 -3 -5 -5 -5 -5 -4 -3 -2 -3 -3 -2 -3 -4 -5 -4 -3 -3 -6 -8 -8 -7 -7 -7 -7 -7 -7 -7 -7 -8 -8 -7 -7 -8 -8 -9 -9 -10 -10 -11 -11 -11 -12 -12 -12 -13 -13 -14 -14 -15 -15 -15 -16
-5 -6 -5 -6 -5 -4 -4 -3 -4 -4 -4 -3 -4 -6 -6 -4 -4 -5 -6 -9 -9 -10 -9 -9 -8 -8 -8 -9 -9 -9 -9 -9 -9 -9 -9 -10 -10 -11 -11 -12 -13 -13 -12 -13 -13 -13 -14 -14 -15 -15 -15 -16 -16 -17
-5 -5 -6 -6 -5 -5 -5 -6 -6 -4 -4 -3 -3 -4 -3 -4 -5 -8 -10 -11 -11 -10 -9 -9 -9 -9 -9 -10 -10 -10 -10 -10 -10 -10 -10 -11 -11 -11 -12 -12 -13 -13 -14 -14 -14 -15 -15 -15 -16 -16 -16 -17 -18 -18
-6 -6 -5 -6 -6 -6 -5 -5 -4 -4 -4 -5 -4 -5 -5 -6 -8 -12 -12 -12 -11 -11 -10 -10 -10 -10 -10 -11 -11 -11 -11 -11 -11 -12 -12 -12 -12 -12 -13 -13 -14 -15 -15 -15 -15 -16 -16 -17 -17 -17 -17 -18 -18 -18
-6 -6 -6 -7 -6 -5 -5 -5 -5 -6 -7 -6 -5 -7 -11 -14 -13 -13 -13 -12 -12 -12 -11 -11 -12 -12 -12 -12 -12 -12 -12 -12 -12 -13 -13 -14 -14 -15 -14 -15 -15 -16 -16 -16 -17 -17 -17 -18 -18 -18 -18 -19 -19 -19
-6 -6 -5 -7 -6 -5 -6 -7 -7 -8 -9 -9 -11 -13 -14 -15 -14 -13 -13 -13 -13 -13 -13 -13 -13 -13 -13 -13 -13 -13 -13 -13 -13 -14 -14 -14 -15 -15 -16 -16 -17 -17 -17 -17 -18 -18 -18 -19 -19 -19 -19 -19 -20 -20
-6 -6 -6 -6 -6 -7 -7 -8 -8 -8 -9 -11 -11 -13 -14 -16 -15 -15 -15 -14 -14 -14 -14 -14 -14 -14 -14 -14 -14 -14 -14 -14 -14 -15 -15 -16 -16 -17 -17 -18 -18 -18 -18 -19 -19 -19 -19 -19 -19 -19 -20 -20 -20 -20
-7 -9 -7 -6 -7 -8 -7 -8 -9 -9 -11 -12 -14 -14 -15 -15 -16 -16 -16 -16 -16 -15 -15 -15 -15 -15 -15 -15 -15 -15 -15 -15 -16 -16 -16 -17 -17 -18 -18 -18 -19 -19 -19 -19 -20 -20 -20 -20 -20 -20 -20 -21 -21 -21
-9 -8 -9 -9 -8 -8 -9 -9 -10 -11 -12 -13 -15 -15 -15 -15 -16 -17 -17 -17 -16 -16 -16 -16 -15 -15 -15 -15 -16 -16 -16 -16 -17 -17 -17 -18 -18 -18 -19 -19 -19 -20 -20 -20 -20 -20 -20 -21 -21 -21 -21 -21 -21 -21
Height
1258 1267 1275 1286 1293 1300 1308 1317 1327 1338 1348 1358 1368 1376 1384 1393 1404 1412 1415 1420 1423 1425 1433 1437 1440 1444 1448 1452 1456 1469 1474 1476 1479 1483 1488 1488 1490 1487 1487 1486 1492 1493 1500 1508 1514 1510 1503 1488 1492 1492 1487 1487 1488 1488
1260 1267 1273 1283 1292 1303 1313 1322 1331 1340 1349 1358 1366 1374 1382 1393 1404 1411 1417 1419 1421 1424 1433 1436 1438 1441 1444 1447 1451 1461 1460 1462 1467 1473 1483 1488 1493 1499 1488 1485 1492 1491 1486 1486 1489 1484 1485 1487 1486 1487 1487 1488 1488 1489
1264 1271 1280 1290 1297 1307 1317 1327 1335 1343 1350 1357 1364 1373 1383 1394 1403 1411 1415 1417 1419 1427 1438 1440 1441 1441 1442 1445 1447 1453 1458 1459 1462 1463 1473 1480 1487 1485 1494 1485 1483 1486 1490 1488 1489 1480 1483 1485 1486 1486 1486 1487 1487 1487
1276 1284 1292 1301 1309 1316 1323 1330 1336 1343 1349 1356 1365 1373 1382 1393 1403 1410 1412 1416 1420 1426 1434 1442 1440 1441 1441 1443 1446 1448 1450 1454 1458 1463 1468 1476 1480 1483 1483 1481 1482 1482 1487 1484 1484 1481 1482 1483 1485 1484 1484 1483 1484 1483
1291 1297 1304 1311 1318 1324 1329 1333 1339 1345 1351 1357 1364 1373 1384 1395 1404 1410 1414 1417 1421 1425 1434 1440 1441 1442 1442 1444 1446 1447 1450 1454 1458 1464 1468 1474 1478 1482 1487 1486 1482 1482 1479 1482 1480 1483 1483 1484 1484 1483 1483 1483 1483 1483
1303 1309 1314 1320 1325 1329 1333 1338 1342 1345 1353 1361 1369 1378 1387 1397 1407 1413 1415 1419 1420 1426 1431 1440 1445 1445 1445 1446 1445 1448 1451 1454 1457 1462 1471 1475 1476 1479 1484 1478 1481 1482 1482 1482 1482 1483 1484 1483 1483 1483 1483 1484 1484 1485
1315 1320 1325 1329 1334 1337 1340 1344 1346 1352 1356 1364 1373 1381 1390 1399 1405 1409 1411 1415 1421 1427 1429 1440 1444 1447 1446 1446 1449 1452 1453 1455 1459 1466 1473 1476 1478 1479 1483 1476 1483 1482 1482 1482 1482 1482 1484 1484 1485 1485 1485 1485 1486 1487
1328 1332 1336 1339 1344 1347 1350 1352 1354 1358 1364 1371 1379 1387 1396 1402 1408 1411 1410 1419 1422 1425 1425 1434 1444 1448 1448 1449 1453 1454 1456 1459 1464 1470 1475 1477 1480 1481 1479 1481 1482 1482 1483 1483 1482 1482 1482 1485 1486 1486 1488 1489 1489 1492
1340 1343 1345 1349 1350 1353 1358 1362 1366 1371 1376 1381 1387 1393 1398 1403 1406 1410 1413 1418 1420 1423 1421 1429 1437 1445 1449 1452 1455 1458 1458 1465 1470 1472 1475 1477 1480 1478 1481 1482 1482 1483 1483 1484 1485 1485 1485 1486 1488 1490 1492 1493 1494 1496
1349 1351 1354 1356 1359 1364 1367 1371 1373 1377 1381 1384 1390 1392 1399 1403 1408 1411 1416 1418 1419 1420 1422 1434 1441 1446 1451 1453 1458 1460 1462 1467 1471 1475 1476 1475 1475 1482 1481 1481 1481 1480 1482 1484 1484 1487 1488 1490 1492 1493 1495 1497 1497 1497
1357 1359 1363 1366 1369 1373 1376 1379 1381 1382 1384 1387 1392 1397 1403 1406 1410 1413 1417 1420 1425 1429 1433 1439 1442 1444 1450 1452 1457 1462 1464 1469 1468 1472 1473 1473 1473 1481 1481 1481 1482 1481 1482 1483 1484 1487 1490 1492 1494 1496 1496 1497 1498 1498
1363 1366 1369 1371 1375 1376 1380 1383 1387 1390 1393 1395 1397 1404 1409 1412 1415 1419 1429 1430 1429 1434 1438 1440 1443 1446 1450 1452 1456 1463 1466 1468 1465 1474 1472 1470 1477 1480 1482 1483 1484 1484 1485 1486 1489 1491 1493 1494 1495 1496 1497 1497 1498 1498
1366 1370 1373 1376 1379 1382 1385 1389 1392 1394 1396 1398 1401 1406 1409 1414 1417 1414 1425 1428 1432 1435 1438 1441 1445 1448 1451 1454 1458 1462 1461 1467 1471 1470 1466 1472 1477 1480 1482 1484 1487 1488 1490 1491 1493 1494 1496 1496 1497 1497 1497 1497 1497 1497
1371 1373 1376 1380 1383 1387 1390 1394 1395 1396 1399 1402 1406 1413 1416 1417 1424 1426 1427 1428 1434 1436 1438 1441 1444 1447 1451 1454 1458 1456 1468 1469 1468 1465 1464 1474 1476 1479 1484 1487 1489 1490 1492 1493 1495 1496 1497 1497 1497 1498 1498 1497 1497 1496
1375 1377 1380 1382 1385 1388 1392 1395 1398 1402 1404 1409 1413 1419 1423 1428 1429 1430 1430 1432 1435 1438 1440 1441 1445 1449 1453 1456 1459 1463 1465 1462 1461 1459 1469 1473 1477 1481 1485 1488 1490 1492 1494 1495 1496 1496 1497 1497 1498 1497 1497 1497 1495 1493
1381 1382 1384 1386 1388 1391 1394 1397 1400 1402 1408 1416 1422 1427 1430 1430 1432 1433 1435 1437 1438 1440 1442 1444 1449 1450 1456 1456 1457 1456 1454 1453 1463 1468 1471 1474 1478 1483 1486 1488 1491 1493 1494 1495 1495 1496 1497 1497 1497 1496 1495 1494 1491 1488
1390 1389 1390 1391 1391 1393 1396 1400 1403 1409 1419 1424 1429 1428 1430 1431 1434 1436 1437 1439 1440 1442 1445 1448 1448 1453 1458 1457 1459 1460 1459 1464 1468 1469 1472 1475 1480 1483 1486 1489 1491 1493 1494 1495 1495 1496 1496 1496 1495 1494 1492 1489 1487 1484
1393 1395 1396 1396 1397 1398 1398 1402 1411 1420 1427 1430 1431 1433 1433 1435 1437 1438 1439 1441 1443 1444 1447 1450 1453 1455 1455 1456 1458 1464 1466 1468 1470 1472 1475 1478 1482 1485 1487 1489 1490 1492 1492 1493 1493 1494 1494 1493 1492 1490 1487 1485 1482 1479
1398 1398 1399 1400 1400 1401 1407 1416 1419 1426 1433 1434 1435 1436 1437 1439 1441 1443 1444 1444 1445 1446 1449 1452 1454 1454 1457 1461 1463 1465 1468 1470 1473 1475 1478 1480 1482 1484 1485 1487 1489 1491 1492 1493 1493 1492 1492 1490 1489 1486 1484 1481 1477 1474
1401 1402 1402 1401 1402 1404 1415 1424 1426 1430 1436 1439 1440 1442 1443 1445 1446 1446 1446 1447 1448 1450 1452 1455 1458 1461 1462 1463 1465 1467 1470 1472 1474 1477 1480 1482 1484 1485 1486 1488 1490 1491 1492 1492 1491 1491 1489 1488 1485 1483 1480 1477 1473 1469
1404 1404 1404 1403 1403 1409 1421 1428 1432 1436 1439 1442 1444 1445 1447 1448 1449 1449 1450 1450 1452 1457 1460 1462 1463 1463 1464 1464 1466 1468 1470 1473 1474 1476 1479 1481 1483 1485 1487 1488 1489 1490 1490 1490 1489 1487 1486 1484 1482 1479 1476 1473 1470 1466
1406 1406 1406 1407 1412 1420 1429 1434 1437 1439 1442 1445 1446 1448 1450 1451 1453 1454 1455 1455 1460 1463 1463 1465 1466 1466 1467 1467 1468 1469 1471 1473 1474 1475 1477 1480 1482 1485 1486 1487 1488 1488 1488 1487 1486 1485 1483 1481 1478 1475 1473 1470 1467 1464
1409 1409 1412 1416 1421 1429 1440 1439 1441 1443 1445 1448 1449 1450 1453 1455 1456 1458 1459 1462 1465 1465 1466 1466 1467 1468 1468 1469 1470 1472 1473 1475 1475 1477 1479 1481 1482 1484 1485 1485 1486 1486 1485 1485 1484 1482 1480 1477 1475 1472 1470 1467 1464 1462
1412 1415 1421 1425 1432 1439 1442 1444 1445 1448 1449 1450 1451 1454 1456 1458 1459 1460 1461 1465 1468 1467 1467 1467 1468 1469 1471 1472 1472 1473 1475 1476 1478 1479 1480 1482 1482 1483 1484 1484 1484 1484 1483 1482 1480 1478 1476 1474 1472 1469 1466 1464 1461 1458
1420 1433 1434 1438 1441 1443 1447 1449 1450 1451 1452 1453 1453 1456 1458 1460 1461 1462 1463 1469 1470 1469 1470 1471 1471 1472 1472 1473 1474 1475 1476 1478 1479 1480 1480 1482 1482 1483 1483 1483 1482 1481 1480 1479 1477 1476 1473 1471 1469 1466 1463 1460 1457 1455
1436 1443 1444 1446 1449 1448 1450 1451 1453 1453 1454 1454 1456 1459 1460 1460 1462 1465 1471 1473 1473 1472 1472 1473 1473 1473 1473 1474 1476 1476 1477 1478 1479 1480 1481 1481 1482 1482 1482 1481 1480 1478 1477 1475 1474 1472 1470 1467 1465 1462 1460 1457 1454 1451
1444 1449 1450 1451 1452 1452 1452 1454 1455 1455 1454 1455 1457 1459 1459 1459 1464 1474 1476 1475 1475 1474 1474 1474 1474 1474 1474 1475 1476 1477 1478 1478 1479 1480 1480 1481 1481 1480 1480 1479 1477 1476 1473 1471 1469 1467 1465 1463 1461 1458 1455 1453 1450 1447
1451 1453 1453 1454 1453 1454 1455 1456 1456 1456 1457 1459 1459 1460 1462 1466 1473 1478 1477 1477 1477 1476 1476 1475 1475 1475 1476 1476 1477 1478 1479 1479 1480 1480 1480 1480 1479 1478 1477 1475 1474 1472 1470 1467 1465 1463 1461 1459 1456 1454 1451 1449 1446 1443
1456 1456 1456 1456 1456 1457 1459 1459 1460 1461 1461 1461 1461 1466 1472 1475 1476 1477 1478 1478 1478 1478 1478 1478 1478 1478 1478 1478 1479 1479 1479 1480 1480 1480 1479 1479 1478 1476 1474 1472 1470 1468 1466 1463 1461 1458 1456 1454 1452 1449 1447 1445 1442 1439
1458 1457 1457 1458 1458 1460 1463 1462 1463 1462 1461 1462 1464 1469 1473 1476 1477 1478 1479 1479 1479 1479 1479 1479 1479 1479 1480 1480 1480 1480 1480 1480 1479 1479 1478 1476 1475 1473 1470 1468 1466 1463 1461 1459 1457 1454 1452 1450 1447 1445 1443 1441 1438 1436
1460 1460 1460 1461 1462 1464 1463 1464 1464 1464 1464 1465 1466 1469 1473 1477 1479 1480 1480 1480 1480 1480 1480 1480 1480 1481 1481 1481 1481 1481 1480 1479 1478 1477 1475 1473 1470 1468 1466 1464 1462 1459 1457 1454 1452 1450 1448 1446 1444 1441 1439 1437 1435 1432
1462 1462 1463 1462 1464 1464 1464 1464 1464 1465 1467 1469 1471 1473 1475 1478 1481 1482 1482 1482 1482 1482 1482 1482 1482 1483 1482 1482 1481 1480 1479 1477 1475 1473 1471 1469 1467 1464 1462 1460 1458 1455 1453 1451 1448 1446 1444 1442 1440 1438 1435 1433 1431 1429
1464 1464 1463 1464 1464 1465 1465 1465 1465 1468 1469 1472 1474 1475 1476 1479 1482 1484 1484 1484 1484 1483 1483 1483 1483 1483 1482 1481 1480 1478 1476 1474 1471 1469 1467 1464 1462 1460 1458 1456 1453 1451 1449 1447 1444 1442 1440 1438 1436 1434 1432 1430 1428 1426
Wind_Speed
34 34 33 35 37 31 36 39 35 37 37 39 40 41 44 51 51 24 21 21 14 7 9 10 12 10 10 11 7 12 7 2 2 2 3 3 2 4 3 2 4 5 6 3 3 3 5 6 6 4 3 2 1 4
36 32 35 34 38 39 36 36 35 36 37 37 39 41 45 49 44 27 23 20 13 10 7 11 12 15 16 15 12 19 0 8 9 4 1 3 2 0 1 3 3 4 3 2 6 2 3 10 4 3 3 2 3 3
34 45 45 38 36 31 32 33 34 34 35 35 37 40 47 52 35 25 23 19 13 10 8 6 4 8 13 16 17 9 6 9 7 7 7 2 3 4 4 4 3 4 5 3 2 2 8 10 11 12 12 12 8 8
43 39 36 35 33 32 31 30 29 29 30 33 36 40 45 52 30 17 19 17 11 12 6 3 7 6 9 15 17 13 14 17 17 8 4 3 3 4 3 0 3 1 9 5 5 10 8 1 2 6 7 7 6 6
34 33 34 34 33 30 27 26 27 27 29 32 35 38 42 49 33 19 17 16 7 7 5 7 9 8 8 10 10 11 18 18 11 5 3 2 5 4 1 0 3 6 3 4 2 4 3 3 6 7 4 1 2 5
35 34 33 31 28 25 23 23 23 28 30 32 35 38 39 43 33 28 14 8 6 10 6 3 5 7 13 14 18 18 16 10 6 5 5 4 2 2 3 4 4 2 1 2 2 4 2 2 5 4 5 8 10 14
35 33 31 29 28 27 24 22 23 31 31 35 36 39 42 42 37 14 10 17 17 18 4 4 4 3 7 9 8 9 8 7 5 5 4 4 3 4 2 3 3 4 3 2 3 1 3 8 6 10 14 16 18 19
32 31 31 28 27 27 25 28 32 29 32 34 39 34 27 25 24 14 21 15 19 9 4 4 2 3 4 3 3 4 4 4 7 5 4 3 4 1 2 3 4 5 5 7 7 7 11 13 14 15 16 19 19 15
29 30 31 30 31 31 24 27 32 33 33 34 33 31 27 20 8 17 22 17 8 3 6 4 4 3 2 4 4 3 3 4 3 2 2 3 2 3 2 3 5 3 1 6 10 12 13 16 17 18 18 14 17 13
22 25 26 28 29 28 24 26 22 23 22 26 23 14 6 10 26 17 5 3 2 5 6 4 3 3 3 2 3 2 4 2 2 2 3 0 2 5 3 2 4 3 7 11 15 15 17 17 17 17 15 9 5 3
23 21 19 19 20 24 20 20 23 22 26 12 6 6 21 16 6 4 5 6 5 4 5 4 4 4 3 2 3 3 3 1 2 2 3 3 3 3 4 6 7 8 9 6 9 17 16 19 15 10 7 5 3 2
25 23 22 25 23 16 17 14 14 15 14 9 15 19 8 3 3 6 2 1 3 2 2 3 4 5 4 4 4 3 3 1 3 5 2 3 3 9 9 9 10 12 18 23 23 20 14 11 8 6 4 4 4 5
22 24 21 22 23 19 17 17 18 17 16 10 6 4 2 5 5 3 4 2 3 3 4 5 3 4 4 4 6 2 2 2 7 3 3 2 11 11 12 15 16 18 17 16 14 12 10 7 7 6 5 5 5 6
22 23 20 19 17 20 15 12 8 5 6 7 5 5 3 2 4 3 2 3 3 6 12 11 5 3 3 3 2 3 2 4 3 4 2 4 13 17 18 16 15 16 14 13 10 8 7 6 5 4 4 4 6 8
16 20 18 18 16 16 15 14 12 11 5 5 4 3 3 3 6 7 10 8 8 10 8 7 6 4 3 3 2 3 4 3 2 1 2 13 22 20 17 14 15 13 10 9 8 6 5 4 2 2 3 6 10 13
15 24 19 15 14 15 15 16 11 6 6 5 5 4 5 5 3 6 12 10 9 10 8 5 3 2 2 2 3 3 4 3 3 3 10 22 24 17 16 16 13 10 10 8 6 4 3 2 2 5 8 11 15 19
19 22 19 17 12 11 18 14 6 8 6 4 4 10 9 12 7 6 7 5 9 5 2 2 2 2 2 2 2 0 2 2 7 9 17 23 19 17 18 16 14 8 6 7 5 3 1 3 6 9 12 17 20 22
18 14 14 17 21 20 14 10 7 6 6 8 5 6 12 10 10 8 9 8 4 4 3 2 4 2 2 3 3 3 6 14 13 13 17 18 15 15 15 13 11 11 9 6 2 1 3 6 9 13 17 21 22 24
14 11 9 6 5 5 6 6 7 5 7 6 8 11 12 12 12 10 8 8 10 11 8 3 2 2 2 3 6 11 17 15 16 15 14 15 16 17 16 14 11 8 6 3 0 2 5 9 12 15 18 22 24 25
11 10 7 5 4 6 6 6 6 6 4 3 6 6 6 7 9 11 10 9 7 4 5 3 2 3 3 5 7 13 13 13 14 13 12 13 14 14 12 10 9 6 2 0 2 5 8 10 14 16 19 21 23 25
10 9 9 11 18 12 7 5 6 5 5 5 6 5 5 9 6 6 7 7 5 4 3 4 6 8 8 9 11 13 13 12 10 7 11 12 11 11 10 8 5 3 1 2 5 9 12 13 16 18 19 20 20 21
11 8 11 11 8 7 8 9 5 4 4 4 4 4 4 3 4 4 5 7 4 4 3 4 6 7 9 11 11 10 9 8 7 8 10 12 12 10 8 6 3 0 3 6 8 10 12 14 16 17 18 18 18 17
10 9 9 8 6 6 4 5 4 5 2 2 2 3 3 3 3 4 4 4 4 4 4 6 7 7 10 11 10 11 10 8 10 11 11 10 9 8 6 3 0 3 5 8 9 11 12 15 16 17 17 18 17 17
10 7 7 6 8 4 3 5 4 3 2 2 2 2 2 2 2 2 2 3 5 4 3 6 8 11 10 10 9 10 9 8 9 10 9 7 5 4 2 0 3 5 7 9 11 13 14 15 16 17 17 17 17 17
6 10 6 6 6 4 4 3 3 2 2 2 2 2 2 1 1 1 2 3 6 5 6 5 4 5 8 8 9 8 8 7 6 4 5 5 3 2 1 4 6 8 10 12 13 14 15 16 16 17 17 17 18 18
7 10 5 4 4 3 2 2 1 2 1 1 2 3 2 2 2 3 3 5 5 5 5 4 3 6 7 7 7 7 6 5 4 3 4 3 2 1 3 5 8 11 13 14 15 16 16 16 17 17 17 17 17 18
5 5 5 5 3 3 3 3 2 2 2 2 2 2 1 2 3 3 2 4 3 4 4 4 4 4 7 7 6 5 5 4 3 3 3 0 3 5 7 9 11 14 15 16 17 17 17 17 17 17 17 16 16 18
5 4 3 4 4 4 2 2 2 3 2 2 1 2 2 3 3 3 2 4 4 4 4 5 5 6 6 6 6 5 4 4 3 1 2 5 7 9 11 13 14 15 16 16 16 16 17 17 17 17 17 17 17 17
5 3 2 3 3 4 4 3 3 3 3 2 2 2 3 3 4 6 5 5 4 3 3 3 4 4 4 4 4 3 3 2 2 3 5 7 9 12 14 15 15 15 16 15 16 16 16 16 16 16 16 16 16 17
5 6 3 3 3 3 4 4 3 4 5 6 7 8 9 8 7 7 5 3 1 1 2 2 1 2 2 3 3 3 3 4 5 7 9 10 12 14 14 15 16 16 16 17 16 15 15 15 15 16 16 16 15 15
4 3 2 3 2 2 3 5 5 7 7 8 8 8 9 7 8 7 5 3 2 2 2 3 4 4 4 4 4 4 6 8 10 12 12 13 14 14 15 16 16 17 17 17 17 16 15 15 15 15 14 14 15 15
5 4 3 1 2 3 2 2 2 3 3 3 4 5 5 4 3 2 4 5 5 4 4 4 3 3 3 4 6 8 9 12 14 15 15 15 15 16 16 16 17 17 17 17 17 16 16 15 15 15 14 14 13 13
3 3 3 2 1 2 4 2 2 3 4 4 3 4 4 3 4 2 3 3 4 4 4 4 3 4 5 8 11 12 15 17 17 16 17 17 17 17 16 17 18 17 17 17 17 16 15 15 14 14 13 12 12 12
Wind_Direction
172 178 183 186 190 190 180 175 172 178 180 183 186 186 184 182 179 189 192 200 189 118 142 171 167 159 156 171 150 145 140 179 123 128 138 172 161 184 196 144 182 179 165 177 134 200 273 158 144 215 12 4 336 225
174 183 178 174 172 164 161 164 168 172 176 181 182 181 180 178 177 182 192 189 172 152 145 172 176 181 181 176 145 167 130 152 165 115 157 115 140 141 162 200 197 223 228 213 212 225 112 191 266 259 296 330 340 317
155 147 159 152 158 156 157 163 170 172 174 175 175 177 176 172 172 177 189 179 170 110 106 118 127 157 182 186 178 149 188 169 167 137 140 121 136 163 163 221 195 211 181 232 235 168 239 250 264 272 275 278 284 279
125 128 132 139 143 147 151 154 159 164 169 172 174 174 174 173 166 172 181 177 172 132 113 97 144 146 166 175 179 183 189 171 159 130 106 133 125 212 181 115 223 38 168 200 247 280 275 304 311 310 296 283 287 293
128 128 129 130 133 137 141 146 150 156 162 165 168 171 174 179 178 174 190 181 152 117 125 123 102 79 120 158 179 174 166 152 141 105 88 105 115 138 83 268 238 190 194 198 255 34 323 9 349 337 340 10 117 118
117 118 121 125 126 124 127 137 146 151 151 157 162 167 170 170 169 171 129 148 156 188 127 124 113 95 105 118 132 136 141 130 112 100 95 97 128 161 142 202 74 83 336 290 313 331 357 342 18 36 88 101 109 114
114 115 116 118 121 116 117 127 135 142 146 151 155 159 161 169 177 190 153 163 183 194 175 115 127 135 121 110 100 93 96 100 91 95 74 119 124 159 156 208 76 31 21 26 0 331 120 53 84 94 109 112 117 117
113 115 109 109 120 119 109 108 117 131 140 147 156 160 158 159 165 146 134 175 170 183 164 110 89 125 134 77 81 75 85 76 50 91 94 102 109 88 220 85 48 43 81 58 55 76 105 111 106 107 116 125 113 100
116 110 107 107 115 115 104 108 111 116 120 126 133 141 137 138 115 118 127 135 126 154 115 96 127 152 112 85 85 68 71 70 74 95 94 155 153 208 55 345 328 329 33 117 101 104 111 112 113 116 119 99 100 103
117 117 121 108 108 121 120 130 134 133 123 126 128 125 94 115 124 115 83 98 107 40 56 80 95 110 103 112 80 95 46 84 117 82 119 217 156 99 59 13 338 314 166 147 121 119 122 117 117 114 109 110 113 130
134 140 140 151 130 117 128 134 131 134 161 111 103 66 122 118 110 61 59 47 1 50 41 83 95 118 96 129 113 41 112 95 126 122 196 161 199 126 110 88 84 107 143 173 145 129 123 116 121 125 115 105 78 24
141 138 136 154 173 168 135 115 133 140 160 156 126 118 118 111 101 87 59 30 37 115 95 106 99 101 100 99 105 72 97 166 127 132 182 204 101 138 126 113 106 111 114 115 116 123 128 125 117 110 94 72 52 26
153 163 153 142 140 135 148 122 112 99 106 91 86 92 20 1 63 111 149 93 107 130 125 131 99 99 98 90 81 117 122 122 133 188 213 60 149 149 143 130 123 124 124 119 115 119 116 103 95 90 77 54 30 10
140 143 161 175 175 166 160 159 148 165 61 53 45 50 32 46 59 50 60 89 112 126 125 118 88 82 95 89 117 116 76 147 194 215 193 148 153 153 138 136 132 132 133 125 118 115 110 99 86 73 50 18 356 343
134 149 145 140 149 165 174 168 155 146 93 68 35 59 52 88 73 96 97 96 103 124 113 93 71 78 54 99 46 121 158 210 231 155 116 153 158 145 147 141 139 134 133 131 129 124 113 106 97 47 9 343 333 328
100 109 118 112 154 159 162 165 161 114 65 67 60 92 119 92 74 77 105 103 120 120 94 69 89 92 79 100 169 194 184 194 142 123 147 161 154 148 150 151 152 147 142 136 137 129 111 98 20 344 330 327 334 336
81 83 86 85 99 123 167 156 83 56 60 60 54 86 94 89 91 98 110 112 135 109 75 95 102 69 109 130 141 323 80 91 127 139 156 157 149 149 157 159 148 158 175 157 144 126 44 337 329 328 332 336 338 337
93 105 108 100 89 75 97 60 73 70 67 51 71 53 78 92 104 95 103 118 104 95 91 93 116 136 135 143 141 135 115 122 117 129 154 153 140 144 152 157 161 158 153 152 154 292 321 338 342 342 339 336 339 336
91 96 117 117 92 82 72 51 50 81 59 67 75 77 81 83 88 103 105 102 107 108 108 88 89 92 102 74 118 128 136 128 123 121 132 149 165 173 171 162 159 161 166 167 198 356 347 343 341 339 338 338 338 337
94 88 99 102 95 83 80 60 60 78 73 67 80 70 74 88 85 78 90 98 91 71 58 46 60 61 71 91 105 140 153 150 142 126 126 140 148 153 152 155 157 162 177 302 341 342 342 338 338 341 340 340 341 342
105 101 96 89 68 68 80 67 62 71 90 81 91 71 71 76 60 49 39 35 60 38 67 53 95 105 107 115 136 150 150 159 166 174 171 157 159 157 157 159 165 174 177 347 343 343 344 342 339 340 342 344 346 347
78 96 76 55 67 68 66 42 77 76 72 88 65 60 70 59 49 31 22 45 57 40 64 103 114 108 110 108 111 136 150 165 168 161 165 165 152 161 167 172 168 215 340 344 342 340 339 338 338 341 342 342 344 345
74 67 57 45 73 60 55 44 61 31 60 64 66 71 63 66 55 51 67 61 79 55 124 151 135 131 125 117 120 121 124 131 134 139 146 154 160 161 162 159 78 351 340 335 336 338 338 338 338 337 337 336 335 336
57 55 41 47 47 72 71 43 50 57 73 50 72 86 63 61 58 72 96 75 55 49 76 147 157 142 132 130 123 124 126 132 137 139 138 140 145 148 158 306 329 333 335 335 338 338 335 333 330 329 328 329 331 332
63 18 32 41 36 60 56 45 34 60 82 51 115 118 108 70 94 77 62 75 39 66 90 116 132 159 147 133 127 129 134 135 138 148 149 151 151 149 342 334 332 332 335 335 331 329 327 325 323 323 324 326 327 329
72 22 42 36 29 43 47 93 72 64 69 92 71 102 114 119 96 75 56 22 30 43 75 79 135 146 139 140 136 140 141 143 141 160 159 155 145 340 333 334 335 324 327 325 323 321 319 319 321 321 321 322 324 327
68 52 43 56 63 75 82 66 51 37 57 55 104 137 167 114 91 73 44 28 54 72 88 119 137 148 141 136 131 131 136 145 155 159 159 247 325 327 326 326 324 320 321 320 318 318 319 319 319 320 321 323 322 323
65 44 45 12 52 35 61 47 42 34 37 34 104 47 41 33 80 55 65 89 85 73 72 87 106 117 121 121 120 121 123 124 118 50 337 329 325 322 320 320 320 319 318 317 316 315 315 316 317 318 318 319 320 321
58 22 40 58 79 64 46 33 41 50 3 333 75 86 91 78 114 128 119 110 86 61 58 73 89 93 93 97 102 113 115 92 37 355 334 323 320 316 319 318 316 316 317 318 317 314 314 314 314 315 315 316 316 318
19 15 36 45 53 63 47 31 65 60 75 102 105 104 96 96 107 131 135 140 105 55 81 88 88 91 88 92 81 66 47 10 348 339 331 322 318 317 317 318 319 320 321 321 319 316 313 313 312 313 313 314 315 317
4 12 69 60 81 58 51 121 96 75 77 72 98 106 117 124 112 103 99 88 74 66 72 85 92 94 88 75 51 19 353 342 335 332 328 324 321 320 319 320 321 322 321 322 322 320 318 316 314 313 313 313 315 317
26 35 17 83 107 20 84 135 107 88 86 78 75 97 113 108 95 94 54 59 68 82 95 99 96 81 56 22 359 346 338 335 331 328 324 321 319 317 317 317 320 320 319 319 319 317 315 314 313 313 314 315 316 319
30 31 39 40 45 51 13 65 72 84 69 76 71 84 81 84 97 113 105 75 66 68 76 75 53 13 348 339 337 332 331 330 327 325 323 322 320 318 316 316 317 316 315 316 315 313 312 311 311 312 313 315 317 321